Theta_e
303 303 303 304 304 306 305 299 289 307 310 297 297 290 295 298 299 301 300 301 299 296 293 292 292 292 295 298 299 294 296 291 286 291 297 298 295 293 292 283 284 284 282 283
303 302 303 303 303 304 301 294 296 308 307 291 292 294 295 298 297 297 298 298 300 299 293 289 293 294 299 301 298 296 297 290 284 287 292 296 294 293 294 292 287 283 279 284
303 303 302 302 303 303 302 295 289 299 302 300 295 292 292 293 300 298 299 299 300 298 295 296 293 295 300 301 300 301 299 292 289 284 288 292 290 292 292 291 283 284 284 287
302 303 302 302 302 303 300 295 291 296 290 293 296 294 293 292 294 298 299 295 297 296 292 292 293 298 298 300 299 299 296 290 290 291 292 292 291 292 291 290 289 285 288 288
302 302 302 302 302 303 295 290 294 298 294 297 295 294 291 292 294 295 294 293 299 297 295 295 293 298 296 295 297 295 296 288 288 287 290 291 290 292 291 291 290 290 290 289
301 302 301 302 302 301 292 298 299 297 295 294 293 292 292 293 296 298 298 297 297 295 299 302 300 301 301 299 297 294 293 290 285 283 287 287 283 288 291 291 292 291 287 291
301 301 301 301 302 300 301 298 299 297 289 293 292 294 295 294 295 294 298 298 296 300 306 303 301 301 301 300 298 299 292 289 284 281 282 276 289 294 293 291 290 291 292 292
301 301 301 301 301 302 300 300 299 298 286 294 296 294 294 295 297 296 297 299 300 305 304 295 291 289 290 293 297 298 297 288 283 280 281 285 291 292 290 289 288 292 292 293
300 300 301 301 302 303 299 301 303 299 294 294 298 295 296 292 293 294 297 300 309 306 297 290 286 285 290 290 291 296 294 291 286 279 277 277 289 293 294 293 283 294 294 294
300 300 301 302 302 303 300 301 304 300 295 299 301 296 295 299 297 294 296 302 302 303 287 284 283 285 293 286 286 284 284 283 282 277 276 284 292 295 294 283 285 294 295 294
300 300 301 301 302 302 299 298 304 299 296 297 304 303 299 299 300 293 297 300 298 293 288 287 285 282 290 288 291 287 287 283 279 278 274 280 295 294 288 290 295 297 296 296
300 301 301 301 301 300 300 295 304 304 297 297 304 303 304 305 305 301 301 298 299 299 293 289 290 286 285 286 284 292 286 289 286 287 286 294 295 294 295 297 297 297 297 296
300 300 300 300 300 301 299 298 301 299 294 294 298 300 307 311 310 307 300 301 305 302 303 296 293 289 290 287 286 291 293 295 289 290 293 294 296 297 298 298 297 298 298 294
300 300 300 300 300 301 300 299 301 298 296 291 299 311 307 312 313 309 308 307 306 304 301 293 290 288 297 290 294 291 294 296 292 290 293 296 297 296 294 293 293 293 294 293
300 300 300 300 300 302 302 302 302 302 296 291 295 304 310 312 312 311 311 309 304 298 293 288 290 294 294 291 293 291 295 294 290 289 296 294 295 295 294 292 291 291 290 289
300 301 301 303 303 303 299 294 300 303 303 294 288 301 305 309 309 308 307 307 304 302 296 293 295 299 291 285 285 294 297 298 297 296 298 294 294 292 292 291 290 290 289 290
301 302 302 303 303 300 296 290 296 303 304 294 288 291 303 306 306 301 302 302 302 301 298 294 295 295 292 284 283 294 297 295 294 294 293 289 290 288 291 290 290 290 289 289
302 302 302 302 302 301 296 305 302 303 299 298 286 289 294 303 296 295 297 294 295 296 295 294 291 294 288 288 293 295 294 294 293 292 293 292 290 290 289 289 288 286 285 285
302 302 302 300 298 293 297 303 304 306 301 288 286 287 287 299 294 295 291 293 287 293 288 287 292 287 288 294 296 295 294 293 290 291 291 290 289 288 287 286 285 283 283 284
302 300 295 290 297 304 304 301 295 294 292 290 287 292 290 295 289 287 288 287 287 286 288 291 282 286 291 293 295 295 294 292 292 288 287 287 286 286 286 284 285 284 282 282
294 292 290 302 304 300 294 286 284 287 286 289 291 292 291 295 288 286 286 286 285 285 288 288 285 285 288 292 293 294 294 294 294 294 292 291 289 287 284 283 283 282 281 279
297 299 302 301 296 289 287 284 284 285 284 288 289 289 292 289 291 288 286 285 284 284 289 286 284 285 289 291 291 293 293 292 291 292 290 289 288 286 284 283 281 280 279 277
302 296 289 290 286 284 284 282 282 284 286 288 287 286 287 287 286 286 286 284 282 286 285 284 285 290 291 291 292 293 293 291 290 288 288 286 284 283 282 279 279 278 277 277
290 287 284 285 284 284 284 285 286 286 286 287 288 285 285 284 286 285 283 284 286 280 277 277 285 289 290 289 289 288 286 286 286 285 283 281 280 279 279 279 278 276 276 275
286 286 281 281 284 285 285 285 286 286 287 286 285 285 285 285 284 283 284 282 281 279 275 283 288 289 287 286 286 285 284 283 283 283 281 279 279 278 278 278 278 276 274 272
285 283 284 285 285 285 285 285 285 287 286 285 285 284 285 283 284 281 277 279 278 279 284 287 289 287 286 285 285 284 283 282 282 281 280 279 278 277 277 277 275 274 273 272
283 281 284 284 284 283 284 285 285 287 286 284 279 282 282 284 282 280 282 279 281 284 285 286 286 285 284 284 283 282 282 281 281 280 279 279 278 277 276 275 275 276 274 272
Wind_Speed
30 29 24 25 21 20 17 6 8 10 15 9 6 14 9 6 18 9 4 4 5 5 7 7 9 10 8 7 10 10 7 7 6 10 3 4 4 7 6 6 4 2 4 8
32 31 27 27 25 23 11 6 7 10 13 15 15 8 14 9 10 8 8 6 5 4 4 4 7 8 6 7 9 10 8 1 2 7 5 3 6 5 4 4 5 6 6 8
34 33 33 29 25 27 10 6 10 7 11 14 20 20 16 21 12 13 3 3 4 2 3 3 4 6 2 5 8 1 10 5 8 8 9 4 3 4 5 6 4 4 7 7
36 36 36 35 32 28 14 7 11 8 15 24 17 21 16 24 16 14 16 6 8 2 3 2 4 3 2 3 5 5 5 6 5 5 4 4 4 4 5 6 6 7 7 8
38 37 36 35 35 30 13 10 7 7 4 18 25 21 23 26 22 9 10 11 7 13 11 7 6 6 4 6 2 5 1 4 3 3 2 3 3 6 5 4 3 6 6 7
39 38 38 37 36 27 10 9 2 5 11 19 22 27 22 23 21 19 16 20 13 10 14 8 11 7 3 6 11 7 6 7 5 5 1 3 6 9 8 6 6 6 7 10
40 38 37 36 34 30 8 12 2 5 12 14 23 24 19 24 27 19 20 22 12 6 5 4 4 6 8 6 5 3 8 6 3 3 3 1 8 3 4 6 3 5 2 2
39 37 35 34 33 31 15 6 4 3 3 15 15 20 24 17 18 18 20 7 15 3 4 3 1 6 5 3 6 3 2 7 4 6 4 5 6 4 7 8 5 2 6 5
38 36 34 34 31 31 11 5 3 0 2 14 8 23 21 18 16 10 16 9 1 4 4 4 7 6 7 5 3 5 6 6 7 4 6 8 8 3 3 5 4 5 6 7
36 34 32 31 30 23 13 2 3 2 4 4 14 13 16 13 12 8 5 8 3 3 3 4 5 5 5 8 11 6 3 4 5 3 3 8 8 6 3 6 10 7 8 6
34 32 30 28 28 21 14 2 4 2 3 5 4 4 8 11 15 11 6 6 2 3 4 5 5 4 6 4 7 9 9 8 4 4 4 8 6 4 10 8 2 5 5 5
32 30 27 27 26 23 20 4 6 3 2 4 3 9 9 7 15 10 5 5 7 6 5 1 4 2 4 2 4 1 3 9 9 10 9 4 3 4 3 6 8 6 7 6
29 29 27 27 25 25 19 7 11 4 3 5 2 6 5 5 9 9 7 2 3 4 3 5 2 3 5 4 5 3 3 4 5 5 4 3 1 1 3 4 6 7 6 12
27 27 25 24 25 26 23 6 6 5 3 4 4 1 4 4 4 7 7 7 6 6 2 3 4 4 4 6 6 3 5 9 7 1 1 5 3 2 5 7 7 10 8 7
26 25 25 23 19 18 8 7 5 8 3 4 5 6 3 5 6 12 9 11 7 4 3 3 2 2 4 2 4 4 6 8 8 8 12 6 6 7 6 9 7 7 16 12
27 24 27 24 27 21 8 3 2 5 5 4 4 3 4 4 7 11 10 6 4 3 5 2 1 0 4 4 4 3 2 3 4 7 10 6 12 8 4 10 8 9 11 14
27 26 24 23 22 8 4 5 4 14 6 3 5 4 3 3 3 3 3 3 3 3 3 3 3 1 3 3 3 1 2 5 10 15 16 9 2 6 9 14 14 15 14 12
26 26 24 24 16 9 4 2 17 15 3 3 2 3 3 5 3 3 3 3 3 4 2 2 3 0 2 1 2 3 3 10 9 6 7 11 16 15 13 13 15 16 14 13
24 23 21 8 3 3 2 14 13 5 1 3 2 2 3 2 2 2 3 2 4 3 3 3 4 3 6 7 5 8 10 3 12 14 15 16 17 16 14 14 13 17 12 12
22 6 4 3 5 14 14 5 1 2 2 2 4 3 2 2 1 2 3 2 4 4 3 4 2 4 2 2 6 9 7 13 17 20 9 15 13 14 13 12 11 12 11 11
3 4 4 6 12 5 4 2 1 2 2 3 1 2 1 4 4 3 1 3 1 3 3 4 1 3 3 3 8 11 12 12 5 8 10 11 16 17 15 13 12 12 12 11
5 3 6 3 4 4 4 3 2 4 5 2 4 2 3 1 3 5 3 3 2 3 3 3 3 4 3 5 10 10 10 11 12 14 17 15 15 14 14 14 13 12 12 11
4 4 4 3 1 5 7 5 3 3 3 4 3 3 3 2 3 4 3 4 1 0 1 3 3 4 6 8 10 11 12 14 16 16 15 17 16 14 15 14 12 13 11 10
0 3 6 4 2 2 1 2 2 1 2 5 5 3 3 1 4 2 5 0 2 2 1 6 1 6 9 8 9 15 13 14 15 16 15 16 16 15 13 12 10 11 11 10
3 4 5 4 2 2 2 1 2 3 2 2 3 4 3 3 4 2 3 1 1 4 5 1 4 9 11 10 10 13 13 12 13 13 14 15 15 14 13 10 10 10 9 8
6 6 3 2 1 2 3 3 2 4 2 2 4 4 4 3 3 2 1 5 5 1 1 2 8 10 11 12 11 11 12 13 13 13 14 13 12 12 12 11 10 8 8 8
4 3 2 2 4 3 2 3 3 3 3 2 3 5 2 3 3 2 3 2 2 2 3 4 8 12 12 12 13 13 13 13 13 13 12 13 12 11 11 12 9 9 8 6
Wind_Direction
207 202 191 208 195 210 189 174 210 161 143 186 206 214 191 229 244 259 299 301 253 233 195 176 187 198 208 171 152 162 203 148 185 207 183 163 186 193 144 127 240 181 161 269
204 197 182 203 201 204 185 192 213 175 162 199 208 186 203 229 229 202 209 242 219 357 211 173 192 200 222 159 154 161 182 202 77 344 14 47 224 193 167 119 83 198 144 259
199 192 189 197 207 198 210 186 183 168 193 222 199 186 192 213 235 252 288 295 289 248 277 250 190 197 193 159 175 184 111 136 163 191 210 177 197 200 169 140 121 203 221 267
194 190 187 192 200 200 206 206 211 183 190 205 204 186 192 196 217 203 195 261 231 227 314 268 191 151 133 7 147 100 124 161 157 222 180 188 213 239 177 183 211 159 242 203
189 188 187 191 199 196 218 183 205 168 219 190 202 191 200 199 211 172 200 220 188 217 220 213 231 152 181 185 198 140 219 182 131 138 105 61 243 244 253 239 209 255 249 255
186 186 187 191 203 181 212 216 215 225 197 185 187 208 196 200 206 214 233 208 219 222 226 211 235 229 207 195 157 168 144 134 112 228 79 64 331 216 218 234 220 188 216 230
183 186 189 191 195 182 231 198 125 218 193 187 204 187 196 200 212 212 209 233 222 238 116 124 39 55 68 77 46 118 136 101 79 182 47 335 242 205 203 202 265 256 187 111
180 185 187 187 190 197 213 234 156 257 174 192 187 189 198 207 221 222 227 225 230 210 89 52 91 353 37 19 35 31 89 122 106 138 192 289 288 209 153 170 238 213 157 127
179 183 184 186 184 197 179 272 148 25 216 205 146 185 188 200 210 213 222 241 105 92 126 138 178 193 167 177 75 42 64 51 112 133 145 211 237 233 147 107 255 191 166 165
177 180 181 180 179 188 179 266 67 106 292 256 163 180 190 192 191 208 168 169 163 109 146 134 161 226 177 157 158 177 52 19 149 121 190 286 247 203 101 121 235 163 160 171
172 175 177 177 173 174 175 239 120 116 278 290 337 168 161 189 208 189 154 115 241 92 128 162 194 145 213 113 165 172 160 141 179 80 71 277 178 92 163 205 71 128 120 132
168 169 166 162 164 169 169 235 147 104 290 278 264 268 258 237 214 179 183 183 162 173 119 199 113 142 73 160 203 135 195 179 177 175 208 234 219 220 191 153 141 149 133 132
162 157 158 164 169 175 168 235 176 104 289 297 279 226 254 197 220 183 157 273 153 135 175 157 158 133 122 151 239 121 232 148 141 108 219 229 280 22 87 109 120 129 128 140
154 161 167 169 175 162 190 178 159 163 4 267 287 297 266 296 212 170 177 148 93 93 65 128 149 155 184 195 134 218 219 137 137 66 0 79 346 47 117 90 87 94 82 125
164 167 176 180 178 176 146 97 139 170 224 335 274 302 247 286 233 174 146 130 115 122 106 80 199 91 116 33 50 206 194 171 160 212 185 146 165 140 130 118 114 115 116 101
173 170 167 161 151 118 105 96 275 167 100 310 302 282 328 3 96 83 90 103 83 94 121 173 137 14 106 136 204 257 218 234 179 176 128 81 108 104 85 114 112 106 106 119
154 147 142 150 137 129 119 183 187 143 110 244 306 326 329 312 70 55 80 49 108 98 132 90 98 257 85 109 185 4 349 107 104 115 110 75 134 148 113 113 108 101 96 98
132 133 127 125 117 64 322 266 129 122 125 266 277 268 340 358 68 73 352 84 34 18 110 98 119 129 56 291 344 58 121 112 95 25 69 109 115 112 114 117 117 105 103 106
125 115 109 100 70 163 250 126 129 62 221 196 195 170 264 14 104 111 52 58 80 37 88 199 140 187 209 215 177 185 184 163 126 99 99 114 116 123 123 121 117 114 116 110
117 100 90 148 196 145 147 119 36 125 225 32 242 25 234 245 87 104 103 34 138 167 214 99 108 234 349 190 188 149 135 125 125 109 122 119 121 130 131 128 121 118 118 113
90 132 198 128 144 69 35 50 111 210 164 214 180 216 139 14 93 119 44 134 94 125 203 160 175 279 228 162 135 137 151 146 102 99 121 120 133 135 129 117 113 113 110 109
130 180 112 126 86 78 145 218 216 210 193 91 181 129 77 356 85 81 16 99 80 156 131 114 217 255 142 122 126 125 126 118 116 124 121 118 119 125 120 119 113 107 105 107
216 134 90 94 36 130 170 193 222 166 181 201 132 96 137 55 56 76 86 74 157 337 101 220 227 142 117 111 109 102 105 104 104 102 104 107 110 109 114 110 106 110 105 111
18 106 61 44 106 58 172 161 120 205 110 109 98 101 92 115 63 106 87 235 113 90 236 235 169 138 122 113 111 111 108 107 110 112 117 113 109 102 98 102 110 112 113 119
82 41 48 25 10 6 292 277 72 18 122 107 88 67 89 45 86 61 118 109 144 204 237 237 115 107 106 101 102 108 109 109 109 115 111 108 108 107 104 102 106 105 103 105
52 40 86 11 104 20 11 18 39 11 18 28 50 83 79 57 120 107 168 131 202 257 358 84 123 123 114 113 109 104 105 110 109 104 104 106 109 112 113 108 102 98 108 111
58 45 16 331 66 59 35 23 1 349 60 76 92 71 83 106 74 79 17 28 341 320 50 66 106 110 108 103 100 102 104 102 101 106 106 103 103 107 105 113 124 122 114 97